Wetbulb
45.96 46.06 46.71 47.59 47.70 48.61 48.00 43.27 32.81 45.75 51.86 36.51 37.07 33.34 36.53 39.89 40.53 43.45 41.77 41.38 40.26 40.23 41.07 39.32 38.13 38.61 43.20 44.45 43.99 40.34 43.05 38.34 34.64 36.52 38.84 38.82 39.98 38.73 38.70 33.57 31.26 32.01 32.25 35.46
45.82 46.25 46.01 46.98 47.59 48.25 46.45 37.89 36.60 46.99 42.69 31.35 32.08 36.06 36.22 37.83 37.98 38.53 39.71 38.78 41.32 42.17 39.23 35.77 39.72 41.50 44.28 43.51 42.45 41.05 41.46 36.10 31.81 34.32 38.01 37.98 34.03 37.01 38.28 38.89 35.30 32.35 30.67 34.91
44.88 45.45 46.38 46.92 47.37 47.40 46.05 36.23 31.62 35.85 39.96 33.99 36.02 34.11 33.72 33.18 39.28 39.05 40.24 39.51 42.00 39.79 37.69 41.20 38.41 40.16 41.74 40.42 40.28 40.94 42.17 38.17 36.17 32.80 36.18 38.34 33.43 34.90 35.52 35.71 30.88 32.90 33.90 36.42
44.72 45.22 46.11 46.70 47.17 47.26 45.01 34.26 33.22 38.53 32.03 33.84 33.90 36.99 35.13 33.07 32.61 39.15 40.52 37.99 39.11 38.39 35.20 37.13 37.11 40.59 41.32 40.69 39.04 39.17 38.86 32.03 35.75 37.79 39.04 39.05 35.80 35.51 35.33 33.06 35.48 31.05 34.90 35.32
44.63 45.16 46.13 46.36 46.72 46.61 42.13 32.63 33.76 36.30 36.03 36.98 34.07 34.44 33.85 33.51 35.12 35.91 35.73 34.56 38.95 39.44 36.26 37.95 36.12 38.55 36.45 35.71 37.86 35.71 36.86 32.89 34.20 32.42 37.15 36.93 34.06 36.55 38.20 38.47 37.00 36.72 37.12 37.12
44.37 44.71 45.49 45.75 45.79 45.63 40.27 39.08 37.24 38.79 34.61 33.80 32.45 32.60 33.77 34.51 37.15 37.97 38.77 37.88 37.72 37.06 39.93 42.75 43.58 43.79 42.62 39.97 37.09 35.66 34.69 34.43 31.93 28.66 35.52 34.42 29.24 34.57 36.71 38.49 40.59 38.21 33.41 38.87
44.78 45.04 45.22 45.34 45.25 45.49 41.32 39.05 39.51 33.61 30.79 33.09 31.86 33.41 34.99 34.07 35.43 35.07 38.11 39.01 36.23 41.37 45.63 45.08 43.89 42.70 41.63 41.12 38.49 39.40 35.31 34.43 33.88 29.94 31.58 22.40 35.38 41.33 40.03 37.99 38.08 38.57 38.94 40.38
44.41 44.49 44.44 44.58 44.51 43.94 39.04 39.70 36.38 34.26 30.97 33.35 33.06 33.77 33.47 35.07 36.83 36.05 35.83 37.46 41.53 42.67 40.62 35.60 33.09 33.62 34.33 35.59 38.65 37.91 37.37 34.83 31.86 28.20 27.31 32.40 35.72 37.96 35.91 35.55 36.64 41.82 40.71 40.99
44.02 44.17 44.20 44.10 44.12 43.61 41.22 39.31 41.11 35.12 31.73 31.33 35.24 33.61 33.98 31.58 33.24 35.15 36.89 41.33 43.44 42.19 36.11 33.95 26.76 25.29 29.66 29.38 31.50 38.09 37.65 37.11 32.05 30.77 25.70 23.43 36.33 40.41 41.24 39.68 31.00 41.74 40.52 39.83
43.77 43.60 43.81 43.94 43.45 43.18 41.54 40.00 42.39 37.40 32.06 36.17 36.15 33.05 32.89 37.01 35.97 34.34 36.60 37.82 38.52 40.50 32.89 30.10 27.83 27.32 33.23 27.34 28.34 27.44 30.03 30.26 28.07 28.98 28.31 32.30 40.87 38.88 41.03 29.99 34.63 41.84 41.26 40.93
43.65 43.21 43.44 43.60 43.72 42.49 42.09 40.87 43.83 39.18 34.77 35.56 38.07 38.58 36.05 36.16 37.51 33.62 36.00 36.00 37.41 35.64 30.07 30.09 30.57 29.64 32.31 31.49 34.13 31.69 30.14 27.78 27.58 29.61 28.71 26.55 42.33 38.78 33.86 39.94 39.90 41.16 41.00 40.57
43.09 42.57 42.92 43.29 43.49 43.24 43.76 39.59 44.59 44.88 37.46 36.64 42.16 42.02 43.09 42.02 41.31 39.21 38.13 35.25 33.24 36.33 34.30 34.68 34.61 31.72 33.57 32.83 27.98 37.70 31.01 36.09 34.66 34.45 35.06 38.57 42.15 40.41 41.11 42.07 41.00 40.42 40.33 40.61
42.87 42.61 42.41 42.36 42.56 43.32 43.16 41.69 43.66 40.98 35.29 36.46 36.36 36.73 42.58 44.62 44.19 45.46 36.54 38.28 38.31 34.90 36.73 36.79 36.43 31.86 36.28 29.79 32.09 34.28 36.54 38.34 35.01 33.31 38.44 38.75 39.55 39.29 39.60 39.92 41.27 40.90 41.17 39.57
42.72 42.17 42.01 41.85 42.00 43.17 43.41 41.60 42.59 40.09 37.84 31.34 34.22 42.87 40.35 44.21 44.32 43.84 43.76 41.16 42.51 39.71 37.82 33.31 34.03 33.03 38.90 34.59 36.12 35.69 38.61 36.72 35.24 35.26 38.51 37.30 38.28 39.13 39.19 38.65 40.79 40.03 39.64 38.79
42.02 41.84 41.91 41.74 42.06 43.02 44.06 44.44 44.07 44.09 37.79 30.89 34.17 38.53 41.85 43.47 43.12 42.16 43.62 42.14 40.48 38.18 34.84 33.57 31.98 36.61 36.64 37.33 36.42 35.33 38.31 36.33 34.35 33.15 38.83 37.55 39.65 40.19 39.83 38.48 38.00 38.19 37.42 36.44
41.98 41.63 41.91 41.88 42.40 42.75 40.08 35.43 42.67 43.49 42.72 34.57 29.58 40.07 39.05 41.99 42.53 41.16 40.86 41.30 39.34 38.29 34.69 34.50 36.12 40.23 37.33 33.48 32.09 38.95 40.91 41.11 41.20 37.84 39.57 41.21 41.42 39.47 40.24 38.74 38.28 38.14 37.48 37.00
42.03 41.73 41.98 42.24 42.82 42.51 37.39 35.47 39.67 42.34 42.45 33.89 29.28 31.94 38.45 40.86 41.36 40.21 39.25 40.21 38.65 36.93 34.97 34.56 35.06 36.34 36.69 34.59 31.38 38.94 40.52 39.70 39.26 39.88 37.60 34.90 37.46 36.24 39.28 38.87 37.95 37.60 36.77 36.14
41.57 41.64 41.89 42.40 42.58 41.81 38.69 42.02 40.89 39.81 36.14 36.21 30.37 32.47 33.92 38.46 33.75 33.52 38.01 35.20 36.58 33.87 34.90 34.33 33.41 34.76 34.64 29.88 36.00 37.95 38.06 37.70 37.34 37.65 39.25 39.24 39.65 38.46 37.72 37.19 35.83 33.93 33.01 32.56
41.49 41.63 41.83 41.16 38.68 36.11 38.49 42.92 42.43 42.15 35.69 30.01 31.42 29.64 29.21 36.10 34.53 35.26 33.48 35.06 29.78 34.85 31.48 32.32 33.92 32.45 29.71 34.74 37.86 37.13 36.58 36.59 36.81 37.11 37.79 37.50 36.73 35.99 35.00 35.35 35.13 33.43 31.59 31.30
41.70 40.46 33.30 32.27 37.84 43.03 42.86 39.23 35.81 34.56 34.20 34.13 31.91 36.29 31.87 35.40 34.30 33.51 33.69 34.16 31.96 28.24 32.05 33.73 29.72 32.02 36.66 38.02 38.29 40.17 38.98 38.94 36.89 33.52 34.39 36.25 35.02 34.68 34.72 35.13 35.53 33.62 31.58 30.16
38.03 32.80 32.69 40.08 41.68 40.27 35.79 30.96 30.02 32.78 30.16 34.12 33.79 34.86 32.43 35.88 31.73 31.83 34.19 32.30 31.67 28.17 30.23 30.31 31.11 30.16 33.78 37.67 38.19 40.22 39.84 38.27 38.45 41.14 40.20 39.77 37.81 35.40 34.58 33.24 33.07 32.29 31.16 29.41
38.15 39.01 42.25 41.22 36.32 32.95 29.70 28.35 30.90 29.69 28.38 33.38 32.16 33.57 35.10 35.35 35.48 33.22 32.54 29.49 30.04 24.42 32.81 29.72 25.71 32.58 37.39 37.60 38.28 38.27 38.07 38.75 38.22 39.45 38.26 38.01 36.45 35.47 34.14 33.11 32.37 31.64 30.79 27.41
41.40 37.25 34.48 32.91 31.19 26.28 23.94 22.59 26.38 27.88 33.01 33.73 34.22 33.64 36.03 34.81 34.82 32.33 31.78 28.75 27.46 32.30 28.27 26.26 31.26 34.11 36.59 38.18 37.85 36.83 38.45 37.56 36.66 36.21 36.44 35.38 34.35 34.41 33.95 32.22 31.84 28.38 25.61 23.65
34.61 31.47 26.00 27.25 25.62 27.50 29.40 30.37 32.20 35.25 35.70 35.51 36.60 33.39 33.23 34.09 32.24 31.03 28.61 28.97 29.94 25.18 23.81 25.83 32.36 33.87 36.06 36.80 36.73 36.16 34.71 33.38 33.43 33.72 33.52 32.97 32.15 30.75 29.99 27.97 26.13 24.47 22.18 21.75
32.95 31.72 26.65 27.49 32.61 32.34 33.16 33.60 33.44 36.08 37.19 36.65 34.59 34.52 34.54 32.26 29.82 29.65 28.68 26.68 24.99 27.42 28.25 31.80 32.60 34.90 35.95 35.44 35.54 35.11 32.53 30.60 31.17 32.12 30.58 28.52 26.42 25.75 24.53 24.22 25.45 24.27 20.59 19.82
33.43 31.20 29.36 31.84 30.94 32.59 33.15 31.70 32.78 38.17 37.67 38.21 37.31 32.52 30.90 29.11 29.46 26.42 26.02 24.20 24.05 29.63 31.57 31.79 32.56 33.67 35.44 34.78 34.27 33.27 31.85 31.81 30.71 28.56 27.48 26.19 24.85 24.49 24.60 23.54 22.65 20.66 20.35 18.61
31.01 31.42 34.10 32.17 33.12 32.63 34.63 33.66 36.44 39.73 36.85 33.63 33.00 28.08 26.36 30.00 26.27 24.42 29.32 28.38 29.76 29.51 29.94 30.15 31.12 33.27 33.44 32.35 29.68 27.68 28.63 28.57 27.77 26.83 26.51 24.59 23.65 21.34 22.02 21.26 20.52 21.45 20.17 19.48
MSLP
1017.64 1017.71 1017.73 1017.91 1018.17 1018.38 1018.48 1018.41 1018.67 1018.39 1018.00 1018.58 1017.75 1016.82 1015.35 1015.37 1013.86 1013.44 1013.35 1012.85 1012.03 1011.22 1011.06 1010.63 1010.52 1009.81 1009.38 1009.82 1009.78 1009.72 1010.01 1010.55 1010.55 1010.33 1010.53 1010.76 1010.12 1009.82 1010.14 1009.98 1009.95 1010.08 1008.96 1006.91
1017.17 1017.26 1017.38 1017.54 1017.91 1018.08 1018.10 1018.17 1018.43 1018.35 1018.79 1017.26 1016.98 1016.22 1015.41 1014.98 1014.22 1013.78 1012.93 1012.78 1012.37 1011.98 1011.58 1011.37 1010.55 1009.81 1010.12 1010.50 1010.57 1010.27 1010.59 1011.19 1011.34 1010.45 1011.00 1011.37 1010.85 1010.18 1010.02 1010.20 1010.59 1009.36 1008.96 1007.02
1016.51 1016.74 1016.87 1017.09 1017.42 1017.89 1018.27 1018.49 1018.21 1018.27 1018.04 1017.50 1016.20 1015.06 1014.55 1014.21 1013.80 1013.82 1013.59 1012.78 1012.14 1012.01 1011.72 1011.44 1010.68 1010.23 1011.12 1011.85 1012.01 1012.13 1011.52 1011.24 1010.71 1009.91 1009.60 1009.93 1010.35 1010.06 1010.45 1010.51 1010.13 1008.45 1008.17 1007.68
1015.97 1016.17 1016.26 1016.52 1016.85 1017.29 1018.13 1018.16 1017.45 1016.06 1016.15 1016.12 1015.82 1014.32 1013.53 1013.31 1012.92 1012.97 1013.35 1013.21 1012.42 1011.95 1011.64 1011.11 1010.94 1011.27 1011.76 1012.68 1013.20 1013.83 1012.92 1012.70 1011.85 1011.16 1010.49 1010.32 1010.93 1010.23 1009.96 1009.79 1009.02 1008.94 1007.64 1008.18
1015.36 1015.47 1015.56 1015.84 1016.20 1016.86 1017.34 1017.38 1017.20 1016.89 1015.46 1014.50 1015.08 1014.08 1013.11 1012.45 1012.14 1012.34 1011.91 1012.52 1012.41 1011.93 1011.61 1011.62 1011.49 1011.96 1012.87 1013.49 1014.35 1014.57 1015.05 1013.97 1013.22 1012.27 1011.27 1010.88 1010.68 1010.52 1009.21 1008.92 1008.73 1007.81 1006.99 1006.30
1014.54 1014.68 1014.84 1015.15 1015.62 1016.46 1016.45 1017.08 1017.14 1016.33 1014.77 1014.47 1014.07 1013.43 1012.90 1012.10 1012.16 1011.87 1011.48 1011.86 1012.28 1011.53 1010.99 1011.28 1011.34 1011.91 1012.57 1013.45 1014.24 1014.61 1014.78 1014.46 1014.13 1012.13 1011.20 1010.70 1009.96 1007.70 1008.47 1007.29 1007.09 1006.95 1006.21 1005.61
1013.53 1013.83 1014.12 1014.48 1014.99 1015.44 1016.15 1016.56 1016.64 1016.43 1014.07 1013.72 1012.95 1012.59 1012.50 1012.29 1011.96 1011.81 1011.69 1011.70 1012.29 1012.04 1011.91 1011.63 1011.77 1012.00 1012.53 1013.07 1013.72 1014.18 1014.16 1013.95 1013.66 1012.25 1011.15 1009.71 1006.87 1006.40 1006.40 1006.31 1006.18 1006.27 1006.03 1006.03
1012.79 1013.13 1013.57 1014.00 1014.47 1015.00 1015.77 1016.03 1016.32 1015.80 1014.07 1013.38 1012.75 1013.06 1012.61 1012.35 1012.13 1011.85 1011.89 1012.04 1012.78 1012.92 1013.27 1012.43 1011.96 1011.63 1011.83 1012.06 1012.57 1013.17 1013.72 1013.81 1012.60 1011.61 1010.48 1008.57 1006.80 1006.14 1006.14 1005.81 1004.81 1005.29 1005.42 1006.48
1012.40 1012.75 1013.15 1013.52 1014.01 1014.51 1014.89 1015.22 1015.50 1015.31 1013.36 1012.49 1012.25 1012.41 1012.31 1012.34 1011.82 1011.26 1011.27 1011.52 1012.01 1012.46 1013.30 1011.97 1010.94 1009.92 1010.04 1009.96 1011.12 1011.85 1012.71 1012.55 1012.30 1011.73 1009.59 1007.81 1005.66 1005.27 1005.73 1006.20 1004.93 1004.99 1005.47 1006.51
1012.09 1012.41 1012.70 1013.06 1013.50 1013.97 1014.42 1014.40 1014.51 1014.70 1013.78 1012.89 1012.60 1012.39 1011.89 1011.81 1011.31 1010.80 1010.81 1011.07 1011.64 1012.30 1012.37 1011.59 1010.75 1009.42 1009.22 1009.00 1009.68 1011.33 1011.49 1011.63 1010.89 1010.20 1008.74 1006.66 1005.43 1006.03 1006.55 1006.17 1005.22 1005.14 1005.88 1006.57
1011.69 1012.07 1012.35 1012.63 1013.05 1013.54 1013.84 1013.83 1013.96 1013.91 1013.39 1012.93 1012.38 1012.31 1012.11 1011.92 1011.30 1010.65 1011.62 1011.89 1011.36 1011.45 1011.63 1011.00 1009.87 1008.97 1008.31 1008.29 1007.99 1009.06 1009.78 1009.97 1009.69 1009.21 1007.83 1006.21 1005.27 1006.27 1005.78 1005.47 1006.03 1006.38 1006.93 1007.68
1011.48 1011.75 1011.98 1012.31 1012.45 1012.76 1013.18 1013.04 1013.25 1013.57 1013.57 1013.10 1012.61 1011.81 1011.42 1011.02 1010.89 1011.11 1011.51 1011.76 1012.37 1012.12 1011.33 1010.34 1009.33 1008.93 1008.52 1007.02 1006.63 1007.40 1008.40 1007.67 1007.62 1007.46 1006.21 1006.43 1005.82 1005.86 1006.34 1006.26 1006.24 1007.26 1007.87 1008.73
1011.21 1011.48 1011.74 1012.00 1012.08 1012.27 1012.68 1012.69 1012.99 1013.44 1013.61 1013.37 1012.57 1011.41 1010.95 1010.96 1011.05 1010.84 1011.15 1011.16 1011.60 1012.29 1013.06 1011.42 1009.65 1008.29 1007.05 1006.73 1006.30 1006.38 1007.05 1007.40 1007.64 1007.58 1006.02 1006.28 1006.74 1007.12 1007.17 1007.58 1006.93 1007.55 1008.81 1009.57
1010.88 1011.15 1011.36 1011.66 1011.88 1012.00 1012.30 1012.45 1012.93 1013.23 1012.91 1012.39 1010.95 1010.51 1010.16 1010.30 1010.50 1010.17 1010.31 1010.20 1010.99 1011.59 1012.45 1011.83 1010.62 1008.50 1006.96 1005.92 1005.51 1005.52 1005.73 1006.75 1006.23 1006.36 1006.33 1006.90 1006.92 1007.06 1007.60 1008.18 1007.87 1008.53 1009.60 1010.43
1010.57 1010.86 1011.09 1011.47 1011.72 1011.92 1012.21 1012.33 1012.38 1012.45 1012.45 1011.80 1011.02 1010.93 1009.69 1009.38 1009.34 1009.43 1009.93 1010.49 1010.79 1011.40 1011.45 1011.28 1009.87 1008.21 1007.70 1006.64 1006.39 1004.83 1005.42 1005.12 1005.59 1005.35 1005.88 1006.13 1006.05 1006.99 1008.05 1008.12 1008.60 1009.23 1009.94 1011.19
1010.33 1010.67 1011.07 1011.41 1011.69 1012.07 1012.55 1012.55 1011.85 1012.11 1012.28 1011.96 1010.44 1009.12 1008.52 1008.55 1008.94 1009.22 1009.53 1010.13 1010.71 1011.08 1010.63 1009.77 1008.82 1007.89 1007.68 1006.01 1004.40 1003.70 1003.79 1004.67 1005.09 1005.63 1006.16 1006.27 1006.38 1007.22 1007.92 1008.35 1009.17 1009.94 1010.78 1011.64
1010.25 1010.63 1010.99 1011.32 1011.67 1011.99 1011.96 1012.26 1012.31 1012.14 1012.56 1012.70 1011.48 1009.20 1008.42 1008.55 1008.91 1009.17 1009.44 1009.78 1010.02 1010.37 1010.35 1009.90 1008.88 1008.02 1007.77 1005.75 1003.79 1003.30 1003.66 1004.38 1005.33 1006.11 1007.05 1007.31 1007.27 1007.40 1008.15 1008.89 1009.75 1010.70 1011.60 1012.94
1010.23 1010.66 1011.01 1011.32 1011.71 1012.20 1011.90 1011.64 1012.30 1012.80 1012.84 1012.20 1010.56 1008.66 1008.99 1009.21 1008.90 1009.07 1009.03 1009.12 1009.40 1009.67 1009.22 1009.10 1008.30 1008.02 1007.37 1004.62 1003.18 1003.62 1004.19 1004.77 1005.73 1006.35 1006.23 1006.10 1006.83 1008.02 1008.73 1009.58 1010.43 1011.50 1012.77 1013.94
1010.30 1010.73 1011.08 1011.53 1011.74 1011.43 1010.64 1011.17 1011.78 1012.31 1013.21 1011.11 1009.53 1008.31 1008.03 1008.81 1008.65 1008.69 1009.00 1008.73 1008.54 1008.72 1008.28 1008.01 1008.19 1006.33 1004.95 1003.07 1002.61 1003.09 1003.73 1004.10 1005.08 1006.32 1006.47 1006.82 1007.23 1008.10 1009.24 1010.12 1011.04 1011.96 1013.25 1014.54
1010.40 1011.08 1011.27 1010.76 1010.54 1010.40 1010.80 1011.50 1011.40 1011.32 1010.96 1010.49 1008.49 1007.69 1007.62 1008.39 1008.09 1008.00 1008.08 1007.80 1007.22 1007.29 1007.01 1007.29 1006.59 1004.24 1003.41 1002.83 1002.82 1002.82 1003.76 1004.55 1005.56 1006.08 1006.64 1006.99 1007.80 1008.61 1009.47 1010.41 1011.49 1012.43 1013.61 1015.15
1010.63 1010.61 1010.27 1009.83 1010.06 1010.23 1010.34 1010.12 1009.73 1008.87 1008.41 1007.99 1007.20 1006.80 1006.71 1007.57 1007.43 1007.03 1007.27 1006.59 1006.47 1005.79 1005.85 1005.72 1004.28 1002.86 1002.28 1002.31 1002.53 1003.14 1004.09 1005.04 1005.52 1005.24 1005.52 1006.28 1007.17 1008.46 1009.70 1011.12 1012.18 1013.22 1014.48 1015.74
1009.62 1009.47 1009.41 1009.66 1009.66 1009.67 1009.13 1008.47 1007.96 1007.31 1006.46 1006.17 1006.09 1006.31 1006.63 1006.85 1007.04 1006.77 1006.62 1006.06 1006.00 1005.08 1005.28 1004.92 1003.21 1001.67 1001.51 1002.33 1003.10 1003.98 1004.67 1005.26 1005.80 1005.94 1006.47 1007.33 1008.23 1009.41 1010.41 1011.59 1012.72 1013.98 1015.26 1016.64
1009.58 1009.45 1008.86 1009.05 1009.25 1008.68 1008.03 1006.98 1006.31 1005.72 1005.20 1005.33 1005.46 1005.82 1005.91 1006.41 1006.44 1006.13 1005.84 1005.54 1005.11 1004.95 1004.59 1003.39 1002.14 1002.38 1002.45 1002.86 1003.66 1004.61 1005.33 1006.01 1006.45 1006.82 1007.60 1008.51 1009.48 1010.49 1011.29 1012.37 1013.69 1015.09 1016.36 1017.63
1008.72 1008.51 1008.51 1008.38 1007.92 1007.17 1006.09 1005.38 1004.85 1004.79 1004.63 1004.53 1004.65 1005.26 1005.43 1005.42 1005.36 1005.40 1005.16 1005.35 1005.03 1004.54 1003.83 1002.86 1002.94 1003.03 1003.30 1003.86 1004.50 1005.09 1006.08 1006.94 1007.41 1008.11 1008.83 1009.55 1010.48 1011.69 1012.77 1013.88 1014.86 1015.80 1017.14 1018.35
1007.97 1007.64 1007.04 1006.92 1006.22 1006.23 1006.09 1005.93 1005.50 1004.83 1004.52 1004.29 1004.51 1004.74 1004.96 1004.94 1005.04 1005.05 1005.04 1005.18 1004.53 1003.88 1003.29 1003.70 1004.25 1004.09 1004.32 1004.81 1005.47 1006.23 1007.16 1008.08 1008.80 1009.42 1010.12 1011.12 1012.17 1013.07 1014.13 1015.09 1015.81 1016.73 1017.91 1018.87
1007.63 1007.37 1007.00 1006.62 1006.50 1006.04 1006.11 1006.00 1005.44 1004.84 1004.48 1004.26 1004.25 1004.46 1004.73 1004.76 1004.82 1004.89 1004.45 1004.44 1003.96 1004.07 1004.70 1005.21 1005.29 1005.13 1005.28 1005.83 1006.57 1007.45 1008.30 1009.07 1009.88 1010.75 1011.54 1012.35 1013.13 1013.92 1014.88 1016.01 1016.87 1017.67 1018.31 1019.07
1007.55 1006.99 1006.94 1006.85 1006.51 1006.15 1005.80 1006.00 1005.25 1004.91 1004.48 1004.39 1004.47 1004.56 1004.59 1004.96 1004.77 1004.54 1004.42 1004.55 1005.07 1005.68 1006.02 1006.34 1006.30 1006.08 1006.44 1007.08 1007.77 1008.58 1009.49 1010.27 1011.05 1011.79 1012.52 1013.31 1014.12 1014.94 1015.68 1016.44 1017.53 1018.12 1018.88 1019.48
Wind_Speed
12 11 10 10 8 7 8 3 4 3 10 9 3 13 20 9 17 24 19 12 20 18 17 14 10 10 7 3 4 9 10 2 9 14 2 6 14 18 20 8 12 6 6 17
13 12 13 11 9 9 3 3 2 4 3 9 12 19 24 17 24 21 18 16 22 20 18 17 20 21 10 8 7 3 9 7 10 8 10 4 7 15 16 16 2 17 12 11
15 16 14 13 12 12 6 2 3 3 4 2 19 23 24 25 26 18 12 20 19 21 21 20 11 15 2 3 6 7 7 7 13 17 11 2 8 15 13 17 12 17 17 20
17 17 16 15 14 12 7 3 5 9 5 12 9 22 17 27 29 25 12 7 18 15 21 24 25 24 16 5 6 6 3 7 12 18 20 19 12 14 19 23 27 14 20 25
16 18 17 16 15 12 8 4 5 2 15 17 10 12 14 22 24 27 25 20 16 19 16 10 3 11 4 2 4 3 3 4 10 20 26 24 22 23 27 24 25 23 23 27
19 18 17 16 16 14 6 4 3 7 10 14 17 16 21 21 21 22 24 25 18 20 20 19 16 11 9 7 6 8 11 5 5 7 17 15 15 31 26 28 27 21 20 25
20 19 16 16 17 18 3 3 5 5 11 15 15 15 22 24 26 21 12 18 14 21 9 8 9 9 8 12 13 7 7 11 6 5 6 8 11 8 24 26 22 20 17 12
15 15 15 17 17 12 3 4 4 4 16 11 15 12 9 12 19 18 15 12 15 3 10 7 7 8 7 12 15 17 10 5 4 4 8 9 15 11 13 13 27 25 23 18
14 14 14 14 17 17 6 5 6 3 6 5 8 16 13 11 13 11 14 14 10 9 5 5 10 15 12 9 3 12 17 14 8 7 6 9 7 3 13 7 18 12 19 14
12 11 12 15 15 14 7 3 9 3 4 6 6 4 6 12 11 9 6 11 11 14 5 7 10 13 14 19 10 7 6 6 14 12 11 8 9 8 11 12 4 7 12 14
10 10 10 12 15 13 10 4 10 4 2 4 5 9 7 4 5 8 5 2 7 6 9 7 9 8 14 17 20 9 13 9 6 7 9 13 14 13 14 4 3 8 9 12
10 9 8 9 10 14 16 4 6 6 2 3 5 10 11 11 10 4 5 1 2 5 7 8 7 7 4 17 15 14 8 8 7 9 7 3 12 3 2 4 10 8 12 15
12 10 9 6 6 10 14 5 5 3 2 3 4 12 14 13 18 10 5 5 7 6 4 4 6 10 7 11 12 12 11 7 4 2 10 9 9 4 1 3 7 13 13 17
11 10 8 5 4 7 12 6 4 2 2 3 5 4 12 15 17 16 18 10 6 6 4 2 4 6 4 8 10 11 8 10 13 11 10 5 9 8 6 7 11 15 16 17
10 9 9 6 4 10 5 3 4 6 4 2 3 8 16 11 13 17 18 16 13 5 5 5 6 4 4 6 6 11 8 9 10 8 8 8 10 14 13 15 16 18 18 18
9 8 8 8 8 12 4 2 6 7 4 3 4 1 5 9 13 16 18 14 7 6 4 4 4 6 6 6 14 18 16 14 14 3 9 8 8 15 17 16 18 17 17 17
11 10 9 11 10 7 3 1 5 5 6 1 5 5 1 5 8 6 6 11 5 4 3 5 4 5 6 7 15 11 12 12 6 6 12 8 15 10 15 18 17 17 17 15
12 10 8 9 9 8 8 7 10 6 0 4 5 3 4 8 4 3 4 4 5 4 3 3 5 4 5 10 14 8 9 9 10 15 7 10 14 17 17 17 18 19 17 16
11 9 6 3 2 4 4 7 13 5 3 5 4 4 2 2 2 2 2 3 5 3 5 5 6 6 9 10 16 14 16 16 17 9 10 17 19 19 18 18 17 18 16 15
10 4 3 3 5 6 13 5 5 7 6 6 4 0 4 5 4 4 3 4 3 5 5 6 5 7 11 7 8 12 16 12 17 17 15 17 17 18 19 18 14 14 15 15
3 3 4 0 5 5 2 4 6 5 5 5 5 8 7 4 4 3 2 2 3 4 5 5 5 4 9 9 7 9 11 15 14 8 14 17 20 19 17 15 14 14 15 14
7 5 4 5 4 4 6 4 3 5 3 4 4 3 2 3 2 3 3 2 2 3 7 3 4 3 11 12 13 13 12 12 7 9 14 14 16 16 16 15 14 14 14 13
3 4 3 3 3 6 5 5 4 4 4 5 4 3 3 4 5 2 4 6 2 3 4 4 1 2 6 11 13 13 12 10 11 12 13 15 17 15 14 15 13 14 13 12
4 5 6 5 5 6 6 6 3 1 2 5 6 2 2 1 3 1 3 2 1 3 4 3 3 3 9 10 11 14 13 11 10 14 15 16 15 12 9 9 11 12 12 12
4 3 5 8 3 2 2 4 4 2 3 5 3 2 2 0 1 1 2 4 4 5 2 3 4 3 9 11 13 13 12 10 10 9 11 11 11 11 11 9 10 10 11 11
2 3 3 1 4 3 2 3 6 3 5 3 1 1 1 2 1 3 4 3 4 2 3 3 3 5 9 12 11 9 9 9 9 9 10 11 10 11 12 10 8 9 10 11
3 3 3 4 4 5 1 1 3 1 4 3 1 3 2 2 2 3 3 2 3 4 4 3 2 6 8 8 9 9 10 10 10 11 10 11 10 11 11 11 7 8 8 8
Wind_Direction
266 265 259 257 265 256 191 207 214 310 178 198 207 214 218 239 262 232 245 257 259 238 228 236 227 259 254 19 170 191 215 228 241 227 187 300 263 232 213 217 202 239 271 258
255 256 257 251 241 227 223 208 233 183 7 213 214 228 229 235 248 258 243 231 240 246 248 255 250 246 266 326 254 251 158 201 236 236 219 188 238 227 241 228 264 223 226 250
253 254 251 247 233 234 219 144 226 208 199 266 238 215 221 230 231 242 272 260 253 242 242 243 256 248 182 36 14 5 224 201 216 244 264 11 224 222 227 237 230 243 241 266
252 251 246 241 231 223 196 180 226 242 210 229 243 223 216 225 234 222 225 235 241 232 241 241 244 246 234 183 30 335 42 250 242 259 265 263 239 260 222 217 230 216 241 243
249 252 240 235 224 208 213 191 197 204 254 246 208 245 199 231 233 233 227 227 253 230 231 225 203 252 174 223 51 66 335 229 230 239 249 251 251 253 239 244 244 236 246 256
243 252 240 232 220 196 216 140 305 259 244 234 238 222 222 223 240 250 242 238 251 253 247 249 260 234 213 199 206 194 173 175 215 243 241 251 252 234 245 248 243 238 234 241
244 235 231 225 216 205 172 186 205 241 229 221 221 234 235 233 238 237 238 238 255 258 317 260 256 234 229 209 213 224 199 193 187 247 175 209 240 236 223 237 237 227 238 229
228 222 220 215 215 219 182 160 169 228 236 216 206 204 226 252 248 236 237 247 237 266 317 243 223 216 209 225 226 203 194 211 217 225 222 302 286 228 209 209 244 237 243 238
215 216 215 208 206 202 207 199 203 190 317 181 243 216 206 237 242 222 231 231 222 217 200 252 236 233 245 241 193 223 199 220 207 219 228 230 260 241 197 187 262 223 210 199
204 205 214 209 204 197 203 205 186 205 178 220 182 217 213 224 234 246 245 222 206 195 228 237 241 247 242 242 216 193 196 209 213 222 239 242 248 166 171 197 237 170 193 173
201 205 207 212 210 198 214 198 196 198 188 245 220 202 189 172 245 225 106 205 229 211 218 226 225 240 239 235 245 175 192 194 205 224 230 245 172 162 193 175 100 150 154 150
201 202 207 220 219 196 195 212 185 208 215 317 282 247 244 213 193 207 201 121 124 307 232 222 226 212 270 227 230 180 222 208 233 214 230 42 195 310 114 195 150 151 143 137
199 193 181 189 213 203 188 204 168 156 180 229 251 228 225 228 236 217 238 200 163 165 307 314 252 245 233 226 231 227 217 186 220 264 231 220 216 204 257 278 146 141 145 145
194 194 186 185 207 183 177 188 155 174 188 258 232 236 242 231 220 216 223 259 163 137 175 232 282 254 243 263 282 242 214 179 221 236 234 243 245 217 177 176 132 135 139 145
189 186 184 191 181 160 152 171 192 218 246 314 290 291 253 234 219 217 220 232 241 232 219 194 232 230 240 242 282 248 189 218 203 227 182 201 239 186 176 156 149 144 141 137
195 198 193 192 161 127 89 272 202 211 215 285 268 277 234 210 212 218 222 225 234 231 216 243 275 271 267 257 252 254 235 228 221 241 335 244 162 156 165 148 145 140 138 136
192 204 211 204 182 175 190 282 36 212 166 242 249 235 215 234 206 220 216 215 208 207 185 223 243 217 222 250 254 266 234 200 192 192 143 125 155 157 144 138 129 127 121 128
196 204 218 206 204 207 243 220 93 30 337 222 250 220 193 182 177 214 185 192 185 198 208 191 218 223 232 252 235 215 175 145 164 185 240 179 137 139 136 130 132 131 134 133
192 202 198 148 193 206 213 152 156 155 206 291 220 233 214 135 244 206 184 190 188 143 210 197 191 193 221 233 222 184 176 168 174 163 143 143 147 142 143 147 146 139 139 139
181 144 196 186 203 123 128 165 197 198 197 222 258 190 211 192 172 198 213 199 175 190 186 134 223 247 247 236 249 188 169 164 150 140 150 150 149 154 155 157 151 143 143 144
140 188 196 335 157 172 182 216 211 184 205 202 223 221 227 177 219 169 249 183 189 217 147 228 210 237 217 196 183 165 160 165 174 192 160 164 157 155 152 148 145 143 146 153
187 196 151 156 192 204 223 221 244 229 240 189 211 182 187 162 189 214 196 223 222 207 138 234 246 222 177 166 163 155 154 158 148 133 143 144 146 151 148 147 145 148 147 134
176 226 140 198 170 226 229 217 209 227 190 181 181 171 168 161 205 212 208 205 191 148 200 230 270 87 155 148 145 139 143 136 125 122 130 138 141 143 147 145 139 136 138 144
200 193 181 220 193 230 212 237 305 5 239 174 162 118 233 276 193 220 204 89 211 223 236 225 48 145 151 147 147 140 138 128 123 134 138 137 138 129 108 120 137 136 145 148
225 227 211 214 257 276 276 305 289 236 235 166 152 136 236 231 164 323 140 183 228 233 271 65 11 163 156 145 149 137 133 132 127 127 129 126 128 133 128 133 139 132 134 142
253 264 260 247 266 219 198 261 257 217 171 163 276 147 270 249 281 218 223 233 233 80 35 8 339 169 159 148 143 126 124 126 125 124 130 129 125 131 125 123 124 136 144 149
236 223 227 258 288 296 328 247 266 264 165 187 191 221 229 117 242 246 218 280 11 346 333 333 258 176 152 127 118 115 119 124 123 121 121 115 112 120 129 133 134 140 140 145